This is the latest recevied weather packets stored in our database for station/object KK7MLS-13. If no packets are shown the sender has not sent any weather packets the latest 10 day(s).
| Time | Temp. | Humidity | Pressure | Rain* | Wind** | Luminosity | Snow |
|---|---|---|---|---|---|---|---|
| 1788032716 | 17.22° C | 79% | 1020.1 hPa | 1.27 mm | - | 149 W/m² | - |
| 1788032412 | 17.22° C | 75% | 1020.4 hPa | 0 mm | - | 85 W/m² | - |
| 1788032107 | 17.78° C | 67% | 1020.2 hPa | 0 mm | - | 40 W/m² | - |
| 1788031804 | 18.33° C | 63% | 1020.1 hPa | 0 mm | - | 46 W/m² | - |
| 1788031497 | 18.89° C | 59% | 1020.2 hPa | 0 mm | - | 110 W/m² | - |
| 1788031196 | 18.89° C | 64% | 1020 hPa | 0 mm | - | 171 W/m² | - |
| 1788030891 | 18.89° C | 63% | 1020.1 hPa | 0 mm | - | 215 W/m² | - |
| 1788030590 | 18.89° C | 62% | 1019.9 hPa | 0 mm | - | 84 W/m² | - |
| 1788030285 | 18.89° C | 58% | 1020.1 hPa | 0 mm | - | 87 W/m² | - |
| 1788029981 | 19.44° C | 59% | 1019.9 hPa | 0 mm | - | 128 W/m² | - |
| 1788029675 | 19.44° C | 61% | 1020 hPa | 0 mm | - | 230 W/m² | - |
| 1788029371 | 18.89° C | 59% | 1020.1 hPa | 0 mm | - | 243 W/m² | - |
| 1788029069 | 18.89° C | 62% | 1020.1 hPa | 0 mm | - | 223 W/m² | - |
| 1788028769 | 18.89° C | 60% | 1020 hPa | 0 mm | - | 163 W/m² | - |
| 1788028464 | 18.33° C | 62% | 1019.8 hPa | 0 mm | - | 293 W/m² | - |
| 1788028160 | 18.33° C | 60% | 1020 hPa | 0 mm | - | 252 W/m² | - |
| 1788027855 | 18.33° C | 62% | 1019.8 hPa | 0 mm | - | 251 W/m² | - |
| 1788027555 | 18.33° C | 66% | 1020 hPa | 0 mm | - | 186 W/m² | - |
| 1788027254 | 18.33° C | 64% | 1020.1 hPa | 0 mm | - | 189 W/m² | - |
| 1788026954 | 18.89° C | 66% | 1020 hPa | 0 mm | - | 194 W/m² | - |
| 1788026649 | 18.89° C | 67% | 1020.1 hPa | 0 mm | - | 116 W/m² | - |
| 1788026344 | 18.33° C | 67% | 1020.1 hPa | 0 mm | - | 230 W/m² | - |
| 1788026040 | 18.33° C | 67% | 1020 hPa | 0 mm | - | 214 W/m² | - |
| 1788025738 | 18.33° C | 64% | 1020.1 hPa | 0 mm | - | 283 W/m² | - |
| 1788025438 | 17.78° C | 66% | 1020.2 hPa | 0 mm | - | 683 W/m² | - |
* Rain latest hour (hover to see other rain measurements)
** Current wind speed in m/s (hover to see current wind gust speed)